Weather Roundup
Issued by NWS Corpus Christi, TX

Home | Current Version | Previous Version | Text Only | Print | Product List | Glossary On
Versions: 1 2 3 4 5 6 7 8 9 10 11 12 13 14 15 16 17 18 19 20 21 22 23 24 25 26 27 28 29 30 31 32 33 34 35 36 37 38 39 40 41 42 43 44 45 46 47 48 49 50
000
ASUS44 KCRP 061910
HRRCRP

SOUTH TEXAS REGIONAL WEATHER ROUNDUP
NATIONAL WEATHER SERVICE CORPUS CHRISTI TX
100 PM CST TUE DEC 06 2016


TXZ229>244-062000-
...CORPUS CHRISTI AREA OBSERVATIONS...

CITY           SKY/WX    TMP DP  RH WIND       PRES   REMARKS
CORPUS CHRISTI FAIR      73  61  65 SW6       29.91F
NAS CORPUS CHR FAIR      73  60  63 W5        29.90F
ROCKPORT         N/A    N/A N/A N/A MISG      29.91F
KINGSVILLE NAS FAIR      79  55  43 CALM      29.90F
ALICE          FAIR      79  50  36 VRB3      29.90F
ORANGE GROVE   NOT AVBL
FALFURRIAS     NOT AVBL
$$

...VICTORIA AREA OBSERVATIONS...

CITY           SKY/WX    TMP DP  RH WIND       PRES   REMARKS
VICTORIA       FAIR      70  50  49 W9        29.91F
BEEVILLE       NOT AVBL
PLEASANTON     NOT AVBL
SAN ANTONIO    FAIR      63  45  51 N10       29.96S
$$

...LAREDO AREA OBSERVATIONS...

CITY           SKY/WX    TMP DP  RH WIND       PRES   REMARKS
LAREDO         FAIR      75  52  43 VRB3      29.92F HAZE
COTULLA        FAIR      79  43  27 N7        29.92F
DEL RIO        FAIR      63  41  44 NW10G20   29.98F
MCALLEN        NOT AVBL
HEBBRONVILLE   NOT AVBL
$$

...OTHER TEXAS OBSERVATIONS...

CITY           SKY/WX    TMP DP  RH WIND       PRES   REMARKS
BROWNSVILLE    FAIR      79  64  60 S12       29.92F
HOUSTON        FAIR      67  51  56 NW6       29.89F
COL. STATION   CLOUDY    55  50  83 NW16      29.94S
AUSTIN         CLOUDY    56  46  69 N17       29.97F
WACO           CLOUDY    52  47  83 N12       29.98S
FORT WORTH     CLOUDY    49  42  77 N16       29.98F
WICHITA FALLS  PTSUNNY   47  26  44 N21       30.05F
LUBBOCK        FAIR      41  13  31 NE10      30.07F
EL PASO        PTSUNNY   60  34  37 SW17      29.97F
$$

...MARINE OBSERVATIONS...

STATION/POSITION TIME  SKY/WX   TEMP    WIND        PRES    VSBY  WAVE   SWELL
                                AIR SEA DIR/SP/G                  HT/PER HT/PER
                 (UTC)          (F)     (DEG/KT/KT) (MB)    (MI)  (FT/S) (FT/S)
PORT ARANSAS     NOT AVBL
BUOY 90 E PORT A NOT AVBL
BUOY 45 SE BAFFI NOT AVBL
BUOY 200 E PT IS NOT AVBL
BUOY 15 E GALVES NOT AVBL
$$




USA.gov is the U.S. government's official web portal to all federal, state and local government web resources and services.